Location: Sternwarte ZA, Rosenfeld-Brittheim
(48.2889°N, 8.6789°E)
Time: 22:19:24
(UTC+02:00)

ISS - Pass Details

Date: 12 October 2018
Orbit: 403 x 408 km, 51.6° (Epoch: 17 October)

Event Time Altitude Azimuth Distance (km) Brightness Sun altitude
Rises 19:10:26 0° 289° (WNW) 2,339 1.4 -5.4°
Reaches altitude 10° 19:12:40 10° 279° (W) 1,474 0.6 -5.8°
Maximum altitude 19:15:36 30° 216° (SW) 761 -1.9 -6.3°
Drops below altitude 10° 19:18:32 10° 153° (SSE) 1,466 -1.2 -6.8°
Sets 19:20:45 0° 142° (SE) 2,322 -0.3 -7.1°
